STARLINK-5211, 54086

Orbit data source: Space-Track

STARLINK-5211, 54086 is a payload satellite owned by SpaceX/Seattle (US) in LEO that was launched on Thu, 20 Oct 2022 UTC via an FALCON 9 launch vehicle from the Air Force Eastern Test Range (AFETR). Payload-class satellites include a variety of spacecraft equipped with specific instruments for various scientific and technological missions. These include communications satellites like Starlink; space stations such as the ISS; scientific satellites like the Hubble; Earth observation satellites from companies like Planet Labs, Umbra, and HawkEye 360; GPS; miniature CubeSats for education and research; and military/defense satellites.

Loading next visibility...
Identifier
54086, 2022-136AM
Orbit
LEO
Last TLE update
14 hours ago
Origin
Manufacturer
SpaceX/Seattle
Mission
Operational Commercial Communications
Bus & Motor
STARLINK, Unknown motor
Mass
305 kg wet, ~290 kg dry
Launch date (UTC)
2022-10-20 (3 years ago)
Launch vehicle
FALCON 9
Launch site
Air Force Eastern Test Range (AFETR)
Object type
Payload
Rocket body
Debris
Shape & HBR
Box + 1 Pan, 8.86 m
Radar Cross Section
13.562 m², Large (>1 m²)

Expand to show TLE details & history

TLE from 14 hours ago
0 STARLINK-5211
1 54086U 22136AM  25181.84787020  .00001628  00000-0  12034-3 0  9990
2 54086  53.2188   9.7839 0001289  99.1056 261.0082 15.08833721149177
Epoch: 2025-06-30T20:20Z
TLE epoch observation values (Epoch: 2025-06-30T20:20:55.985Z)
Latitude
-0.00002°
Longitude
145.39882°
Altitude
540.8 km
Speed
7.593 km/s
True Right ascension
00h 39m 08s
True Declination
0° 00' 00"
Sunlit
Object was in daylight at epoch
Visualization orbit readout
Latitude
-34.5693°
Longitude
111.94118°
Altitude
551.45 km
Speed
7.586 km/s
Apparent Right ascension
00h 11m 04s
Apparent Declination
-83° 22' 19"
Sunlit
Object is in full shadow
Visualization observer readout
Local Sidereal Time
22:05:57
Azimuth
175.846° S
Elevation
-34.174°
Doppler factor
1
Orbital elements
Apogee altitude
540.899 km
Perigee altitude
539.116 km
Semi-major axis
6,918.144 km
Eccentricity
0.00013
Inclination
53.2188°
RAAN
9.7839°
Arg. of periapsis
99.1056°
True anomaly
Unknown
Mean anomaly
261.0082°
Eccentric anomaly
Unknown
Mean motion
3.77189 °/min
Orbital period
95.44 mins
BSTAR
0.00012034
Loading maneuver chart data...
Loading SW <> Apogee altitude chart data...
Loading historical data...
Loading historical data...
Loading historical data...
Loading historical data...
Loading historical data...
Loading historical data...
Loading historical data...

STARLINK-5211 Visibility forecast

Observer location: undefined°, undefined°

Span
Click to sort rows by Start time (UTC) header in descending order
Start Az.
Max El. time (UTC)
Max El. Az.
Max El.
End time (UTC)
End Az.
4 mins2025-07-01 13:59:30.338Z160.726° S2025-07-01 14:01:30.338Z126.36° SE17.024°2025-07-01 14:03:30.338Z92.42° ESE
6 mins2025-07-01 15:37:30.338Z244.897° WSW2025-07-01 15:40:30.338Z328.311° NNW41.293°2025-07-01 15:43:30.338Z41.385° NE
5 mins2025-07-01 20:39:30.338Z342.066° N2025-07-01 20:41:30.338Z21.251° NNE22.372°2025-07-01 20:44:30.338Z76.489° E
6 mins2025-07-01 22:18:30.338Z301.692° NW2025-07-01 22:21:30.338Z202.982° SW41.918°2025-07-01 22:24:30.338Z143.587° SSE
|